STARLINK-1286, 45417

Orbit data source: Space-Track

STARLINK-1286, 45417 is a payload satellite owned by SpaceX/Seattle (US) in LEO that was launched on Wed, 18 Mar 2020 UTC via an FALCON 9 launch vehicle from the Air Force Eastern Test Range (AFETR). Payload-class satellites include a variety of spacecraft equipped with specific instruments for various scientific and technological missions. These include communications satellites like Starlink; space stations such as the ISS; scientific satellites like the Hubble; Earth observation satellites from companies like Planet Labs, Umbra, and HawkEye 360; GPS; miniature CubeSats for education and research; and military/defense satellites.

Loading next visibility...
Identifier
45417, 2020-019BK
Orbit
LEO
Country
Flag of USUS
Related business
Manufacturer
SpaceX/Seattle
Mission
Partially operational Commercial Communications
Bus & Motor
STARLINK, Unknown motor
Mass
260 kg wet, ~248 kg dry
Launch date (UTC)
2020-03-18 (6 years ago)
Launch vehicle
FALCON 9
Launch site
Air Force Eastern Test Range (AFETR)
Object type
Payload
Rocket body
Debris
Shape & HBR
Box + 1 Pan, 10.1 m
Radar Cross Section
13.562 m², Large (>1 m²)

Expand to show TLE details & history
Last TLE update: 1 day ago

TLE from 1 day ago
0 STARLINK-1286
1 45417U 20019BK  26169.78808366  .00046162  00000-0  45885-3 0  9995
2 45417  53.0464   0.6544 0002227 291.4160  68.6617 15.65294975345975
Epoch: 2026-06-18T18:54Z
TLE epoch observation values (Epoch: 2026-06-18T18:54:50.428Z)
Latitude
0.00001°
Longitude
169.9179°
Altitude
372.745 km
Speed
7.688 km/s
True Right ascension
00h 02m 37s
True Declination
0° 00' 00"
Sunlit
Object was in daylight at epoch
Visualization orbit readout
Latitude
Unknown
Longitude
Unknown
Altitude
Unknown
Speed
Unknown
Apparent Right ascension
Unknown
Apparent Declination
Unknown
Sunlit
N/A
Visualization observer readout
Local Sidereal Time
06:09:58
Azimuth
Unknown
Elevation
Unknown
Doppler factor
Unknown
Orbital elements
Apogee altitude
374.173 km
Perigee altitude
371.166 km
Semi-major axis
6,750.806 km
Eccentricity
0.00022
Inclination
53.0464°
RAAN
0.6544°
Arg. of periapsis
291.416°
True anomaly
68.68547°
Mean anomaly
68.6617°
Eccentric anomaly
68.67359°
Mean motion
3.913 °/min
Orbital period
92 mins
BSTAR
0.00045885
Loading maneuver chart data...
Computing Atmospheric mass density...
Loading historical data...
Loading historical data...
Loading historical data...
Loading historical data...
Loading historical data...
Loading historical data...
Loading historical data...

Documentation

Showing up to 5 results
|